CZ-6A DEB

Satellite information

Favourite Embed

Satellite Type and Status

DEBRISIN ORBIT

Key statistics

Satellite CZ-6A DEB at a glance.

Uptime

333

Days in orbit

Revolutions

≈ 14.2

Per day

Orbit

LEO

Low Earth Orbit

Inclination

89.0

Latest

Satellite identification and parameters

Extended collection of information and parameters for CZ-6A DEB.

Object identification

Identified? True

Debris? True

Object name: CZ-6A DEB

International designator: 2024-140CK

Object number (NORAD): 60682

Object ID (CCSDS): 60682

Country: PEOPLES REPUBLIC OF CHINA (PRC)

Current information (Y/N): Y

RCS size: SMALL

Orbital parameters

Period: 101.111 minutes

Inclination: 89.0144 deg

SMA: 7189.409 km

Apoapsis: 830.232 km

Periapsis: 792.315 km

RAAN: 313.9699 deg

Eccentricy: 0.002637

Argument of periapsis: 253.1824 deg

Mean anomaly: 106.6476 deg

Mean motion: 14.2417384 rev/day

Mean motion (dot): 0.00000607 rev/day2

B* drag term: 0.00025669 1/REarth

Two-line elements (TLE)

Creation date: July 4, 2025, 10:46 p.m.

Reference frame: TEME

Reference center: EARTH

Epoch: July 4, 2025, 7:46 p.m. UTC

TLE line 0: 0 CZ-6A DEB

TLE line 1: 1 60682U 24140CK 25185.82390568 .00000607 00000-0 25669-3 0 9999

TLE line 2: 2 60682 89.0144 313.9699 0026370 253.1824 106.6476 14.24173840 46917

Live tracking on map

Real-time ground track for satellite CZ-6A DEB.

In-orbit conjunctions

A list of the most updated potential collisions computed for object CZ-6A DEB.

Target Orbit TCA Probability of collision Miss distance Type
NOAA 16 DEB SSO 2025-03-30 05:19:46 0.0007301394 39.0 (m) DEBRIS
CZ-6A DEB SSO 2025-02-19 04:37:05 0.000314508 462.0 (m) DEBRIS
THOR ABLESTAR DEB LEO 2024-11-17 20:32:09 0.000870464 225.0 (m) DEBRIS

Associated space launch

18 Low Earth Orbit communication satellites with Ku, Q and V band payloads for the G60 constellation operated by Shanghai Spacecom Satellite Technology (SSST) with funding backed by the Shanghai local government. Initial constellation will consist of 1296 satellites by 2027 with long term plans to expand it to 12000 satellites.

CZ-6A DEB was lifted into orbit during the mission ‘Long March 6A | G60 Polar Group 01’, on board a Long March 6A space rocket.

The launch took place on Aug. 6, 2024, 6:42 a.m. from Launch Complex 9A.

For more information about the launch, click the button.

Launch to space Long March 6A | G60 Polar Group 01
Long March 6A | G60 Polar Group 01

Agency: N/A

Status: Launch Successful

Launch date: Aug. 6, 2024, 6:42 a.m. UTC

Rocket: Long March 6A

Launch pad: Launch Complex 9A

Location: Taiyuan Satellite Launch Center, People's Republic of China

...

Latest news about this satellite

News about space launch
Brightness of first Chinese broadband constellation satellites alarms astronomers

The first satellites of a Chinese broadband constellation are significantly brighter than those of Western systems, posing a new challenge for astronomers.

News about space launch
Chinese rocket stage breaks up into cloud of more than 700 pieces of space debris

HELSINKI — A Chinese Long March 6A rocket’s upper stage has fragmented into a cloud of over 700 pieces of space debris, adding to concerns about long-term orbital safety. China […]

News about space launch
China's Thousand Sails Megaconstellation Kicks Off with Dangerous Debris Field

China's Thousand Sails Megaconstellation Kicks Off with Dangerous Debris Field


Newsletter sign-up

Weekly statistics, charts and insights to help you stay on top of the space industry.